Regional Weather Roundup
Issued by NWS

Home | Current Version | Previous Version | Graphics & Text | Print | Product List | Glossary On
Versions: 1 2 3 4 5 6 7 8 9 10 11 12 13 14 15 16 17 18 19 20 21 22 23 24 25 26 27 28 29 30 31 32 33 34 35 36 37 38 39 40 41 42 43 44 45 46 47 48 49 50
000
ASUS43 KOAX 281810
RWRNE

WEATHER ROUNDUP FOR NEBRASKA
NATIONAL WEATHER SERVICE OMAHA NE
100 PM CDT SUN AUG 28 2016

NOTES: SATELLITE DATA IS BEING USED TO AUGMENT CLOUD COVER ABOVE
       12000 FEET.
       "FAIR" INDICATES FEW OR NO CLOUDS BELOW 12,000 FEET WITH NO
       SIGNIFICANT WEATHER AND/OR OBSTRUCTIONS TO VISIBILITY.

  * THESE STATIONS DO NOT REPORT WEATHER SUCH AS RAIN...SNOW OR FOG.

NEZ001>004-019>022-054>056-281900-
NEBRASKA PANHANDLE

CITY           SKY/WX    TMP DP  RH WIND       PRES   REMARKS
SCOTTSBLUFF    SUNNY     85  42  22 W5        30.09F
6HR MIN TEMP:  54; 6HR MAX TEMP:  85;

ALLIANCE       SUNNY     85  54  34 SW9       30.08S
6HR MIN TEMP:  52; 6HR MAX TEMP:  85;

CHADRON        SUNNY     87  40  19 CALM      30.02F
6HR MIN TEMP:  56; 6HR MAX TEMP:  87; 6HR PCP: TRACE;

KIMBALL        SUNNY     82  48  30 SE3       30.16S
SIDNEY         SUNNY     81  55  40 CALM      30.14S
6HR MIN TEMP:  53; 6HR MAX TEMP:  83;

$$

NEZ057>060-069>072-079>082-281900-
SOUTHWEST NEBRASKA

CITY           SKY/WX    TMP DP  RH WIND       PRES   REMARKS
NORTH PLATTE   SUNNY     87  59  38 S10       30.08F
6HR MIN TEMP:  61; 6HR MAX TEMP:  87;

IMPERIAL       SUNNY     82  58  43 S12       30.10F
6HR MIN TEMP:  58; 6HR MAX TEMP:  82;

LEXINGTON      CLOUDY    82  61  49 S6        30.10F
MCCOOK         CLOUDY    78  57  48 S7        30.10S
6HR MIN TEMP:  63; 6HR MAX TEMP:  78;

OGALLALA       MOSUNNY   82  59  45 CALM      30.08F
$$

NEZ005>010-023>029-035>040-094-281900-
NORTH CENTRAL NEBRASKA

CITY           SKY/WX    TMP DP  RH WIND       PRES   REMARKS
AINSWORTH      SUNNY     88  64  44 S18       30.03F
BROKEN BOW     SUNNY     85  64  49 S9        30.08S
6HR MIN TEMP:  64; 6HR MAX TEMP:  85;

O`NEILL        MOSUNNY   91  59  35 S14G22    30.05S HX  90
ORD            SUNNY     86  65  49 S9        30.06S
6HR MIN TEMP:  61; 6HR MAX TEMP:  86;

THEDFORD       MOSUNNY   88  60  37 S14       30.07F
$$

NEZ041-046>049-061>064-073>077-083>087-281900-
SOUTH CENTRAL NEBRASKA

CITY           SKY/WX    TMP DP  RH WIND       PRES   REMARKS
GRAND ISLAND   PTSUNNY   86  64  47 S9        30.10S
6HR MIN TEMP:  68; 6HR MAX TEMP:  86;

AURORA         MOSUNNY   87  64  46 S5        30.10S
HASTINGS       CLOUDY    88  60  38 SE12      30.11S
6HR MIN TEMP:  67; 6HR MAX TEMP:  88;

HEBRON         SUNNY     85  70  60 S9        30.09F HX  90
HOLDREGE       CLOUDY    79  65  61 SE5       30.10F
KEARNEY *      CLOUDY    81  66  61 S7        30.09F
YORK           MOSUNNY   86  70  58 S10       30.10S HX  90
$$

NEZ011>018-030>034-042>045-281900-
NORTHEAST NEBRASKA

CITY           SKY/WX    TMP DP  RH WIND       PRES   REMARKS
NORFOLK        MOSUNNY   85  68  56 S13       30.08S
6HR MIN TEMP:  67; 6HR MAX TEMP:  85;

ALBION         CLOUDY    84  67  58 S12       30.09S
BLAIR          MOSUNNY   85  74  68 SE6       30.11S HX  92
FREMONT        MOSUNNY   85  72  65 S10       30.10S HX  91
TEKAMAH        MOSUNNY   84  74  71 SE7       30.09S HX  91
6HR MIN TEMP:  60; 6HR MAX TEMP:  85;

WAYNE          MOSUNNY   83  74  73 S13       30.09S HX  90
$$

NEZ050>053-065>068-078-088>093-281900-
SOUTHEAST NEBRASKA

CITY           SKY/WX    TMP DP  RH WIND       PRES   REMARKS
LINCOLN        MOSUNNY   90  71  53 S14       30.09F HX  96
6HR MIN TEMP:  63; 6HR MAX TEMP:  91;

OMAHA EPPLEY   PTSUNNY   86  71  60 S9        30.10S HX  91
6HR MIN TEMP:  68; 6HR MAX TEMP:  87;

BEATRICE       MOSUNNY   87  72  59 S8        30.10S HX  94
FALLS CITY     SUNNY     88  71  57 S8        30.10F HX  94
6HR MIN TEMP:  68; 6HR MAX TEMP:  90;

NEBRASKA CITY  MOSUNNY   85  72  63 SE5       30.11S HX  91
PLATTSMOUTH    MOSUNNY   86  74  67 SE7       30.11F HX  94
$$

NEZ044-045-051>053-067-281900-
OMAHA AREA

CITY           SKY/WX    TMP DP  RH WIND       PRES   REMARKS
OMAHA EPPLEY   PTSUNNY   86  71  60 S9        30.10S HX  91
6HR MIN TEMP:  68; 6HR MAX TEMP:  87;

BLAIR          MOSUNNY   85  74  68 SE6       30.11S HX  92
FREMONT        MOSUNNY   85  72  65 S10       30.10S HX  91
MILLARD        MOSUNNY   86  75  68 SE7       30.10S HX  94
OFFUTT AFB     MOSUNNY   85  74  70 VRB7      30.10S HX  93
PLATTSMOUTH    MOSUNNY   86  74  67 SE7       30.11F HX  94
WAHOO          FAIR      84  73  69 SE8       30.10S HX  90
$$



USA.gov is the U.S. government's official web portal to all federal, state and local government web resources and services.